Погода в Тарлаке

Филиппины     15°29′04″N   120°35′39″E
темп.,
°C
ветер,
м/с
пор.,
м/с
влажн.,
%
обл.,
%
осадки,
мм/ч
давл.,
гПа
погр.,
м
9 мая, вс
вс923:00+26ссв1187100 0.0 101183
02:00+25ююз0086100 0.0 100914
05:00+25ю018696 0.0 100911
08:00+29юв226652 0.0 1011597
11:00+35ююв334099 0.0 10091762
14:00+39юз232696 0.0 10053203
17:00+34ссз3643100 0.0 1006453
20:00+28ссз247497 4.6 1009125
10 мая, пн
пн1023:00+27ююв237921 0.6 101064
02:00+26ююв128513 0.6 100961
05:00+25ююв118619 0.0 100918
08:00+29юв33665 0.0 1010650
11:00+35ююв233979 0.0 10091723
14:00+39юв442683 0.0 10053168
17:00+36вюв353491 0.0 10061092
20:00+28св237533 3.7 101096
11 мая, вт
вт1123:00+27вюв22799 0.3 101062
02:00+26юв12816 0.3 100932
05:00+25ююз11847 0.0 100926
08:00+29юв23676 0.0 1010676
11:00+35вюв244152 0.0 10091863
14:00+38юв443162 0.0 10052720
17:00+33с464799 0.1 1006829
20:00+29всв346511 0.3 1009278
12 мая, ср
ср1223:00+27вюв24705 0.1 1009163
02:00+26ююв127894 0.1 100869
05:00+26ю1180100 0.0 100926
08:00+30юв346114 0.0 1010860
11:00+36юв343730 0.0 10082070
14:00+39вюв54267 0.0 10053028
17:00+32с6954100 0.1 1006670
20:00+28всв237714 2.5 100969
13 мая, чт
чт1323:00+26ююв23765 0.6 101079
02:00+26юз118117 0.6 100823
05:00+25ю11845 0.0 100922
08:00+29юв23665 0.0 1010715
11:00+36вюв12375 0.0 10081744
14:00+39вюв242854 0.0 10043064
17:00+36в343488 0.0 1005955
20:00+29св23630 0.1 1008210